sat.trackr.live / text

‹ back to catalog

IRIDIUM 126

NORAD 42809 · 2017-039G

PAYLOAD ACTIVE UNKNOWN

§ Identity

Operator
Country
US
Launch date
2017-06-25
Launch site
AFWTR
Launch vehicle
Mass (kg)
RCS (m²)

Purposes: comms

External: N2YO · Heavens-Above · Gunter

§ Orbital elements

Epoch: 2026-09-12T16:59:42.883872Z

Period
100.40 min
Inclination
86.3986°
Eccentricity
0.0002324
Mean motion
14.34217008 rev/d
Perigee alt
776.0 km
Apogee alt
779.3 km
Semi-major
7,155.8 km
B*
3.2224e-5
RAAN
317.0808°
Arg perigee
94.4478°
Mean anomaly
265.6983°
Rev number
48,249

§ Raw data

IRIDIUM 1261 42809U 17039G   26255.70813523  .00000110  00000+0  32224-4 0  99902 42809  86.3986 317.0808 0002324  94.4478 265.6983 14.34217008482495

JSON: /api/v1/satellites/42809 · /tle

For live sub-satellite position, see the globe view (requires WebGL).

§ Visibility from observer

Set your observer location to see the next 7 days of passes ≥ 10°. The values pass through the URL so the page stays shareable.

No JS? Fill the form by hand. The geolocation button needs JavaScript.